Preview of NWS' New Version of Forecast
This preview is not operational and should not be used for support decisions.

Regional Weather Roundup (RWR)

Issued by Gray - Portland, ME (GYX)

                            
000
ASUS41 KGYX 211505
RWRGYX
WEATHER ROUNDUP FOR MAINE AND NEW HAMPSHIRE
NATIONAL WEATHER SERVICE GRAY ME
1100 AM EDT THU JUN 21 2018

MEZ002-005-006-010-012-015-018-020-021-024-026-027-029-211600-
MAINE
  
CITY           SKY/WX    TMP DP  RH WIND       PRES   REMARKS
PORTLAND       CLOUDY    72  57  59 N8        29.79R                  
SANFORD        CLOUDY    70  58  65 NE6       29.80R                  
BAR HARBOR     FAIR      70  50  49 N10       29.78R                  
WISCASSET      CLOUDY    69  58  67 CALM      29.80R                  
ROCKLAND       PTSUNNY   65  52  62 VRB5      29.78S                  
FRYEBURG       CLOUDY    71  53  52 NE5       29.80R                  
LEWISTONAUBURN FAIR      72  48  42 NW10      29.79S                  
AUGUSTA        FAIR      73  49  42 N12       29.79S                  
WATERVILLE     FAIR      70  48  45 N8        29.77R                  
BANGOR         FAIR      68  46  45 N10       29.80R                  
GREENVILLE       N/A     59  42  53 N9        29.81S                  
MILLINOCKET    FAIR      65  38  36 VRB6G21   29.81F                  
HOULTON        FAIR      61  40  45 N10       29.79R                  
PRESQUE ISLE   FAIR      59  38  45 N13       29.82R                  
FRENCHVILLE    CLOUDY    57  37  47 NW14      29.81R                  
CARIBOU        FAIR      60  38  43 N13       29.80R                  
$$

NHZ002-005-008-009-011-012-014-211600-
NEW HAMPSHIRE
  
CITY           SKY/WX    TMP DP  RH WIND       PRES   REMARKS
PORTSMOUTH     PTSUNNY   78  56  47 NW8       29.77R                  
ROCHESTER      CLOUDY    70  58  65 NW7       29.79R                  
NASHUA         FAIR      79  59  50 NE8       29.79S                  
MANCHESTER     PTSUNNY   78  55  44 N6        29.78R                  
CONCORD        CLOUDY    74  57  55 N8        29.80R                  
LACONIA        CLOUDY    70  56  61 VRB7      29.81R                  
PLYMOUTH       CLOUDY    69  51  52 NW9       29.82R                  
BERLIN         FAIR      70  43  37 N14G20    29.83S                  
WHITEFIELD     PTSUNNY   68  46  45 VRB5      29.84R                  
JAFFREY        FAIR      76  56  49 VRB3      29.81S                  
KEENE          FAIR      81  56  42 N9        29.81R                  
LEBANON        CLOUDY    71  53  52 NW8       29.83S                  
MT WASHINGTON  MOSUNNY   41  36  81 NW30        N/A                   
$$

VTZ005-007-008-211600-
VERMONT
  
CITY           SKY/WX    TMP DP  RH WIND       PRES   REMARKS
ST JOHNSBURY     N/A     68  42  38 MISG      29.84R                  
MONTPELIER     FAIR      65  47  52 VRB5      29.90R                  
BURLINGTON     FAIR      65  44  46 NW15      29.89R                  
$$

MAZ007-012-024-CTZ003-RIZ002-NYZ038-NYZ072-211600-
SOUTHERN NEW ENGLAND AND NY
  
CITY           SKY/WX    TMP DP  RH WIND       PRES   REMARKS
BOSTON         FAIR      78  57  48 SE8       29.77S                  
WORCESTER      FAIR      75  58  55 CALM      29.81S                  
NANTUCKET      LGT RAIN  64  62  93 S5        29.80R                  
PROVIDENCE     FAIR      74  59  59 SE9       29.79S                  
HARTFORD       FAIR      78  55  44 N10       29.79S                  
ALBANY         FAIR      74  56  53 N8        29.83S                  
NEW YORK CITY  PTSUNNY   74  64  71 NE8       29.78R                  
$$

ANZ081-ANZ082-ANZ150-NHZ014-MEZ023>029-211600-
COASTAL MARINE OBSERVATIONS
  
STATION/POSITION TIME  TEMP    WIND        PRES    WAVE
                       AIR SEA DIR/SP/G            HT/PER
                 (UTC) (F)     (DEG/KT/KT) (MB)    (FT/S)
MOUNT DESERT ROC 1500   58      20/ 12/ 12 1008.6R
MATINICUS ROCK   1400   61      30/  9/ 11 1007.9R
ISLE OF SHOALS   1400   65      50/  7/  7 1007.9R
JEFFREYS LEDGE   1436      60                N/A     2/ 7
CASHES LEDGE BUO 1350   64 60              1007.6    2/ 5
$$

.............KEY..............
   WCI - WIND CHILL
   TC  - TEMPERATURE IN CELSIUS
   VSB - VISIBILITY IN MILES
   HX  - HEAT INDEX
   FAIR- INDICATES FEW OR NO CLOUDS BELOW 12,000 FT, WITH NO 
         SIGNIFICANT WEATHER AND/OR OBSTRUCTIONS TO VISIBILITY.